Flag for India Weather past 2 weeks in Tiruchirappalli, Tamil Nadu, India

Now
79 °F

Broken clouds.


Feels Like: 81 °F
Forecast: 80 / 101 °F
Wind: 12 mph from West

Location: Tiruchchirapalli

Current Time: May 28, 2015 at 8:47:54 AM

Latest Report: May 28, 2015 at 7:40 AM


Visibility: 2 mi

Pressure: 29.68 "Hg

Humidity: 74%

Dew point: 70 °F

Location of TiruchirappalliLocation

Historic Weather in Tiruchirappalli — Graph

°F

Tiruchirappalli temperature yesterday

Maximum temperature yesterday: 100 °F (at 2:10 PM)
Minimum temperature yesterday: 73 °F (at 9:10 PM)
Average temperature yesterday: 88 °F

Past Weeks' High & Low Weather Summary

 TemperatureHumidityPressure
High102 °F (May 26, 3:10 PM)100% (May 13, 7:40 PM)29.86 "Hg (May 13, 7:40 PM)
Low73 °F (May 27, 9:10 PM)35% (May 26, 3:10 PM)29.62 "Hg (May 27, 3:40 PM)
Average87 °F72%29.73 "Hg
* Reported May 13 7:40 AM — May 28 7:40 AM, Tiruchirappalli, Weather by CustomWeather, © 2015

Note: Actual official high and low records may vary slightly from our data, if they occured in-between our weather recording intervals... More about our weather records

Advertising

Tiruchirappalli weather history for previous 24 hours

 ConditionsComfort  
Time TempWeatherWind HumidityBarometerVisibility
7:40 AM
Thu, May 28
79 °FBroken clouds.12 mph74%29.68 "Hg2 mi
7:10 AM77 °FBroken clouds.18 mph83%29.71 "Hg2 mi
6:40 AM77 °FBroken clouds.16 mph79%29.71 "Hg2 mi
6:10 AM75 °FPartly cloudy.16 mph83%29.71 "Hg2 mi
5:40 AM75 °FPartly cloudy.13 mph83%29.71 "Hg2 mi
5:10 AM77 °FPartly cloudy.21 mph83%29.71 "Hg2 mi
4:40 AM77 °FPartly cloudy.20 mph83%29.68 "Hg2 mi
4:10 AM77 °FPartly cloudy.20 mph83%29.71 "Hg2 mi
3:40 AM77 °FPartly cloudy.15 mph83%29.71 "Hg2 mi
3:10 AM75 °FPartly cloudy.15 mph89%29.68 "Hg2 mi
2:40 AM75 °FPartly cloudy.13 mph89%29.68 "Hg2 mi
2:10 AM73 °FRain. Partly cloudy.7 mph100%29.71 "Hg2 mi
1:40 AM73 °FRain. Partly cloudy.7 mph100%29.71 "Hg2 mi
1:10 AM73 °FRain. Partly cloudy.7 mph100%29.80 "Hg2 mi
12:10 AM73 °FRain. Partly cloudy.7 mph100%29.80 "Hg2 mi
11:40 PM
Wed, May 27
73 °FPartly cloudy.9 mph100%29.83 "Hg2 mi
11:10 PM73 °FPartly cloudy.9 mph100%29.86 "Hg2 mi
10:40 PM73 °FPartly cloudy.13 mph100%29.86 "Hg2 mi
9:40 PM73 °FThunderstorms. Partly cloudy.15 mph100%29.86 "Hg1 mi
9:10 PM73 °FThunderstorms. Partly cloudy.12 mph100%29.83 "Hg1 mi
8:10 PM81 °FThunderstorms. Partly cloudy.12 mph79%29.77 "Hg1 mi
7:10 PM93 °FPartly cloudy.No wind49%29.68 "Hg4 mi
6:40 PM93 °FScattered clouds.3 mph49%29.65 "Hg4 mi
6:10 PM95 °FScattered clouds.5 mph50%29.65 "Hg4 mi
5:40 PM97 °FScattered clouds.7 mph44%29.65 "Hg4 mi
3:40 PM99 °FPassing clouds.12 mph42%29.62 "Hg5 mi
3:10 PM99 °FPassing clouds.12 mph39%29.65 "Hg5 mi
2:40 PM99 °FPassing clouds.12 mph39%29.65 "Hg5 mi
2:10 PM100 °FPassing clouds.12 mph40%29.68 "Hg5 mi
1:40 PM99 °FPassing clouds.12 mph42%29.68 "Hg5 mi
1:10 PM99 °FPassing clouds.14 mph42%29.71 "Hg5 mi
12:40 PM99 °FPassing clouds.12 mph42%29.71 "Hg4 mi
12:10 PM97 °FHaze.12 mph44%29.74 "Hg3 mi
11:40 AM95 °FHaze.10 mph47%29.74 "Hg3 mi
11:10 AM95 °FHaze.13 mph47%29.77 "Hg3 mi
10:40 AM93 °FHaze.14 mph49%29.77 "Hg3 mi
10:10 AM91 °FHaze.12 mph52%29.77 "Hg3 mi
9:40 AM91 °FHaze.13 mph52%29.77 "Hg3 mi
9:10 AM90 °FScattered clouds.10 mph55%29.80 "Hg3 mi
8:40 AM88 °FScattered clouds.9 mph59%29.77 "Hg3 mi
8:10 AM86 °FScattered clouds.13 mph62%29.77 "Hg3 mi
Weather by CustomWeather, © 2015

See weather overviewHow to use our weather pages